Regional Weather Roundup
Issued by NWS Grand Forks, ND

Home | Current Version | Previous Version | Graphics & Text | Print | Product List | Glossary On
Versions: 1 2 3 4 5 6 7 8 9 10 11 12 13 14 15 16 17 18 19 20 21 22 23 24 25 26 27 28 29 30 31 32 33 34 35 36 37 38 39 40 41 42 43 44 45 46 47 48 49 50
000
ASUS43 KFGF 041110
RWRFGF
PRAIRIE TO PINES  WEATHER ROUNDUP
NATIONAL WEATHER SERVICE EASTERN NORTH DAKOTA/GRAND FORKS ND
600 AM CDT TUE AUG 04 2015

 **SATELLITE DATA USED TO AUGMENT SKY COVER AT AUTOMATED STATIONS**
 *****  WEATHER ACROSS EASTERN NORTH DAKOTA  *****

CITY           SKY/WX    TMP DP  RH WIND       PRES   REMARKS
GRAND FORKS    CLEAR     51  48  89 N5        29.97R
GRAND FRKS AFB CLEAR     50  47  90 NW5       29.97R
GRAND FRKS NWS   N/A     52 N/A N/A N6          N/A
DEVILS LAKE    CLEAR     52  43  71 NE3       29.98S
FARGO          CLEAR     51  46  83 N3        29.95S
WAHPETON ARPT  SUNNY     48  45  87 S5        29.96R
$$

 ***** WEATHER ACROSS CENTRAL AND WESTERN NORTH DAKOTA  *****

CITY           SKY/WX    TMP DP  RH WIND       PRES   REMARKS
BISMARCK       CLEAR     50  48  93 E5        29.99R
MINOT          CLEAR     51  47  86 CALM      29.98S
JAMESTOWN      CLEAR     53  50  89 CALM      29.98R
MINOT AFB      CLEAR     48  47  99 SW2       29.97S
GARRISON         N/A     51  49  92 CALM      29.98R
WILLISTON      CLEAR     60  51  72 NE3       29.96S
DICKINSON      CLEAR     52  48  86 E10       29.96R
HETTINGER      PTCLDY    57  49  74 E7        29.96F
$$

 *****  OTHER AIRPORT OBSERVATIONS IN OUR AREA  *****

CITY           SKY/WX    TMP DP  RH WIND       PRES   REMARKS
WALHALLA       FAIR      48  48 100 MISG      30.01R
GRAFTON AIRPOR FAIR      50  50 100 NW3       29.99R
VALLEY CITY AR FAIR      48  48 100 N6        29.97R
CANDO          NOT AVBL
CAVALIER APRT  FAIR      50  48  93 NW3       29.99R
GWINNER          N/A     52  48  87 SW7       29.98R
SHEYENNE NWR     N/A     46  45  96 CALM      29.95S
ROLLA          FAIR      45  43  93 NW3       30.02S
 ***** THE ABOVE OBSERVATIONS ARE NON NWS ARE NOT QUALITY
       CONTROLLED AND MAY MIS-REPORT RAIN FOR SNOW...
$$

  *****  WEATHER ACROSS NORTHERN MINNESOTA  *****

CITY           SKY/WX    TMP DP  RH WIND       PRES   REMARKS
FLAG ISLAND    MOCLDY    57  52  82 N9        29.95S
WARROAD        CLEAR     52  46  82 NW5       29.97S
ROSEAU         CLEAR     52  46  82 NW3       29.97R
HALLOCK        CLEAR     48  46  93 CALM      29.97S
THF RVR FALLS  CLEAR     54  48  82 N5        29.98R
BAUDETTE       PTCLDY    51  50  96 NW5       29.94S
WASKISH        CLEAR     55  52  88 NW3         N/A
CROOKSTON      CLEAR     48  46  93 CALM      29.97R
STEPHEN NDAWN    N/A     48  46  93 W1          N/A
GREENBUSH NDAW   N/A     46  46 100 SW2         N/A
$$
  *****  WEATHER ACROSS CENTRAL AND WEST MINNESOTA  *****

CITY           SKY/WX    TMP DP  RH WIND       PRES   REMARKS
FOSSTON        CLEAR     45  43  93 CALM      29.97S
BEMIDJI        CLEAR     44  41  88 W3        29.96R
PARK RAPIDS    CLEAR     48  45  89 CALM      29.96R
ELBOW LAKE     FAIR      55  55  99 CALM      29.96R FOG
WADENA         CLEAR     46  45  93 CALM      29.95S
DETROIT LAKES  CLEAR     55  54  94 CALM      29.96F
MOORHEAD       CLEAR     46  45  93 CALM      29.96S
FERGUS FALLS   CLEAR     55  52  88 NE3       29.95S
MORRIS MN      CLEAR     48  48 100 CALM      29.97R
STAPLES        CLEAR     48  46  93 CALM      29.96R
$$
  *****  WEATHER ELSEWHERE ACROSS MINNESOTA  *****

CITY           SKY/WX    TMP DP  RH WIND       PRES   REMARKS
DULUTH         PTCLDY    53  49  86 NW6       29.92S
INTRNTL FALLS  CLOUDY    50  49  96 CALM      29.94R
ELY            PTCLDY    46  46 100 CALM      29.92R FOG
CLOQUET        CLEAR     52  48  87 W3        29.93S
WHEATON        CLEAR     52  52 100 SW6       29.99R
BRAINERD       CLEAR     47  46  97 CALM      29.95S
HIBBING        CLEAR     43  43 100 CALM      29.94R FOG
ALEXANDRIA     CLEAR     53  52  96 W3        29.97R
SAINT CLOUD    CLEAR     49  47  93 CALM      29.95R
MINNEAPOLIS    CLEAR     59  54  83 NW3       29.94S
$$

  *****  WEATHER ACROSS SOUTH DAKOTA  *****

CITY           SKY/WX    TMP DP  RH WIND       PRES   REMARKS
SIOUX FALLS    CLOUDY    59  54  83 E3        30.01R
BROOKINGS      MOCLDY    54  48  82 CALM      30.03R
WATERTOWN      CLEAR     57  50  77 CALM      30.01R
HURON          CLOUDY    59  54  83 SE5       29.99R
SISSETON         N/A     51  48  89 W5        29.98R
ABERDEEN       PTCLDY    54  49  83 CALM      30.00R
MITCHELL       CLOUDY    62  59  90 SE3       30.00R
PIERRE         CLOUDY    65  58  78 SE5       29.96S
MOBRIDGE       MOCLDY    61  57  87 E10       29.97R
RAPID CITY     MOCLDY    65  58  78 SW6       29.95R
$$

  *****  SOME WEATHER IN NEARBY STATES *****

CITY           SKY/WX    TMP DP  RH WIND       PRES   REMARKS
GLASGOW MT     PTCLDY    65  47  52 E18       29.85F
GREAT FALLS MT CLOUDY    69  41  36 SW8       29.86R
CHEYENNE WY    PTCLDY    64  46  52 W14G25    30.08R
SCOTTSBLUFF NE CLEAR     60  53  77 SE5       29.95R
OMAHA NE       CLOUDY    69  65  86 CALM      29.99R
DES MOINES IA  MOCLDY    67  60  78 S5        29.98R
DAVENPORT IA   CLEAR     56  54  93 W5        29.98R
CHICAGO IL     PTCLDY    61  55  81 W3        29.94R
EAU CLAIRE WI  CLEAR     52  50  93 CALM      29.93S
LA CROSSE WI   CLEAR     59  56  89 CALM      29.95R
$$

  *****  SOME NATIONAL WEATHER *****

CITY           SKY/WX    TMP DP  RH WIND       PRES   REMARKS
LA GUARDIA NY  CLOUDY    73  65  75 SW10      29.86R
RALEIGH NC     CLOUDY    75  72  90 CALM      30.00R
ATLANTA GA     PTCLDY    74  65  73 NW5       30.00R
NEW ORLEANS LA MOCLDY    81  75  82 NE3       29.95R
OKLAHOMA CITY  LGT RAIN  72  69  90 SW13      30.00R FOG
ALBUQUERQUE NM PTCLDY    68  48  48 CALM      30.15S
SALT LAKE CITY PTCLDY    60  54  80 SE6       30.08S
LOS ANGELES CA PTCLDY    68  62  81 CALM      29.88R
BOISE ID       TSTM      73  51  46 VRB6      29.98R
SEATTLE WA     PTCLDY    59  54  83 SW5       30.00R
$$

*** WEATHER ACROSS MANITOBA...SASKATCHEWAN AND ONTARIO ***
                ***ONTARIO***

CITY           SKY/WX    TMP DP  RH WIND       PRES   REMARKS
GERALDTON      CLOUDY    52  50  93 NW8       29.83R FOG
THUNDER BAY    MOCLDY    54  54 100 W2        29.87R
SIOUX LOOKOUT  CLOUDY    50  46  87 N6        29.94R
TORONTO        PTCLDY    64  54  68 NW6       29.85R
BIG TROUT LK   CLOUDY    50  48  93 N5        29.94R
PICKLE LAKE    DRIZZLE   50  50 100 N8        29.91  FOG
DRYDEN         CLOUDY    50  48  93 N5        29.95R
KENORA         MOCLDY    50  48  93 N5        29.98R
$$
                *** MANITOBA***

CITY           SKY/WX    TMP DP  RH WIND       PRES   REMARKS
BRANDON        PTCLDY    48  46  93 NE6       30.02R
DAUPHIN        CLEAR     45  45 100 W8        30.03R
ISLAND LAKE    MOCLDY    52  52 100 NE2       30.00R
PILOT MOUND      N/A     46  46 100 NE3         N/A
THE PAS        PTCLDY    48  46  93 CALM      30.02R
THOMPSON       DRIZZLE   54  52  94 N6        30.01R
WINNIPEG       PTCLDY    50  48  93 NE6       30.01R
LYNN LAKE      CLOUDY    55  54  94 E3        30.04S
CHURCHILL      DRIZZLE   46  45  93 N8        30.01S
GILLAM         DRIZZLE   50  50 100 N12       29.98R FOG
$$
                ***SASKATCHEWAN***

CITY           SKY/WX    TMP DP  RH WIND       PRES   REMARKS
ESTEVAN        PTCLDY    50  48  93 E6        29.99S
KINDERSLEY     MOCLDY    61  52  72 SE15G23   29.84F
LLOYDMINSTER   CLOUDY    63  52  67 SE14G20   29.88R
PRINCE ALBERT  PTCLDY    54  52  94 NE2       29.97R
REGINA         PTCLDY    59  48  67 SE13      29.98S
YORKTON        CLEAR     46  45  93 E2        30.01S
N. BATTLEFORD  CLOUDY    63  54  72 E13       29.92F
LA RONGE       MOCLDY    54  48  82 E3        30.00S
SASKATOON      PTCLDY    59  52  77 SE10      29.95S
SWIFT CURRENT  CLEAR     57  50  77 SE14      29.88F
$$
NOTE: THESE ARE AUTOMATED STATIONS WITH LIMITED QUALITY CONTROL
      "FAIR" INDICATES FEW OR NO CLOUDS BELOW 12,000 FEET WITH NO
      SIGNIFICANT WEATHER AND/OR OBSTRUCTIONS TO VISIBILITY.
      SKY/WX - SKY CONDITION AND SIGNIFICANT WEATHER.
      TMP - AIR TEMPERATURE.    DP   - DEWPOINT TEMPERATURE.
      RH  - RELATIVE HUMIDITY.  PRES - PRESSURE.
      HX  - HEAT INDEX.         WCI  - WIND CHILL INDEX.
$



USA.gov is the U.S. government's official web portal to all federal, state and local government web resources and services.